Regional Weather Roundup
Issued by NWS

Home | Current Version | Previous Version | Text Only | Print | Product List | Glossary Off
Versions: 1 2 3 4 5 6 7 8 9 10 11 12 13 14 15 16 17 18 19 20 21 22 23 24 25 26 27 28 29 30 31 32 33 34 35 36 37 38 39 40 41 42 43 44 45 46 47 48 49 50

000
ASUS43 KDTX 270410
RWRMI
MICHIGAN HOURLY REGIONAL WEATHER ROUNDUP
NATIONAL WEATHER SERVICE DETROIT/PONTIAC MI
1200 AM EDT THU APR 27 2017

NOTE: "FAIR" INDICATES FEW OR NO CLOUDS BELOW 12,000 FEET WITH NO
SIGNIFICANT WEATHER AND/OR OBSTRUCTION TO VISIBILITY.

MIZ047>049-052>055-059>063-066>070-074>076-081>083-270500-
SOUTHEAST LOWER MICHIGAN

CITY           SKY/WX    TMP DP  RH WIND       PRES   REMARKS
ADRIAN         CLOUDY    63  59  87 CALM      29.53F
ALMA           CLOUDY    62  58  88 E5        29.47F
ANN ARBOR      CLOUDY    65  64  97 E6        29.53F
BAD AXE        MOCLDY    66  54  65 S7        29.54F
CARO           MOCLDY    66  56  70 SE8       29.53S
DETROIT CITY   CLOUDY    63  52  67 S3        29.57S
DETROIT        CLOUDY    67  55  65 VRB3      29.56S
FLINT          TSTM      66  58  75 S13G25    29.56R
GROSSE ILE     PTCLDY    62  52  69 S9        29.55S
HILLSDALE      MOCLDY    61  55  82 SE6       29.51F
HOWELL         LGT RAIN  61  56  85 NE10      29.44F

CITY           SKY/WX    TMP DP  RH WIND       PRES   REMARKS
JACKSON        CLOUDY    65  61  87 S10       29.50R
LAMBERTVILLE   CLOUDY    74  54  49 S7        29.53F
LANSING        CLOUDY    68  57  68 S7        29.48F
LAPEER         HVY RAIN  63  59  87 S26G37    29.60R
MASON          CLOUDY    65  61  85 SE5       29.48F
MONROE         CLOUDY    71  56  60 SE12G17   29.54S
MT. CLEMENS    PTCLDY    59  54  83 S3        29.57S
PONTIAC        CLOUDY    64  59  83 E7        29.54F THUNDER
PORT HOPE        N/A     66  55  67 S13G20    29.51F
PORT HURON     CLOUDY    63  50  63 SE8       29.58F
TRI CITIES     CLOUDY    66  60  81 E6        29.49F
MIDLAND        FAIR      65  56  71 CALM      29.48F
TROY           CLOUDY    65  51  60 NW7       29.61R
SAGINAW HB     CLOUDY    68  54  60 SE9       29.50F
$$
MIZ043>046-050>051-056>058-064>065-071>073-077>080-270500-
SOUTHWEST LOWER MICHIGAN

CITY           SKY/WX    TMP DP  RH WIND       PRES   REMARKS
BATTLE CREEK   CLOUDY    69  58  67 S6        29.48R
BENTON HARBOR  LGT RAIN  60  54  80 SW17      29.53R
BIG RAPIDS     MOCLDY    62  52  69 CALM      29.46F
COLDWATER      CLOUDY    64  58  80 SE8       29.49F
FREMONT        MOCLDY    60  55  82 CALM      29.45F
HOLLAND        CLOUDY    63  56  78 SW3       29.46F
GRAND RAPIDS   CLOUDY    65  56  72 E5        29.46S
IONIA          MOCLDY    65  55  70 CALM      29.47R
KALAMAZOO      CLOUDY    69  55  60 S6        29.47S
LUDINGTON      CLOUDY    60  55  82 S3        29.45S
MARSHALL       CLOUDY    66  60  79 SE6       29.48R
MOUNT PLEASANT MOCLDY    61  55  78 CALM      29.46F
MUSKEGON       CLOUDY    60  55  83 CALM      29.46F
SOUTH HAVEN    RAIN      63  54  74 W5        29.48R
$$
MIZ016>042-270500-
NORTHERN LOWER MICHIGAN

CITY           SKY/WX    TMP DP  RH WIND       PRES   REMARKS
ALPENA         CLOUDY    60  55  83 CALM      29.51F
BEAVER ISLAND  CLOUDY    54  52  93 E9        29.48F
BELLAIRE       CLOUDY    58  54  84 CALM      29.47F
CADILLAC       CLOUDY    59  53  79 CALM      29.47F
CHARLEVOIX     MOCLDY    59  54  83 E6        29.49F
FRANKFORT      CLOUDY    63  54  73 CALM      29.44F
GAYLORD        CLOUDY    63  55  75 NE3       29.50F
GRAYLING       LGT RAIN  60  55  85 CALM      29.50F
HARBOR SPRINGS CLOUDY    56  55  95 E7        29.49F
HOUGHTON LAKE  CLOUDY    62  55  77 CALM      29.49F
MANISTEE       CLOUDY    62  55  77 CALM      29.44F
OSCODA         PTCLDY    65  55  68 S6G16     29.51F
PELLSTON       CLOUDY    55  52  89 CALM      29.50F
ROGERS CITY    MOCLDY    47  43  87 CALM      29.52S
TRAVERSE CITY  CLOUDY    65  55  70 SE3       29.44F
$$
MIZ007>008-015-270500-
EASTERN UPPER MICHIGAN

CITY           SKY/WX    TMP DP  RH WIND       PRES   REMARKS
KINROSS        CLOUDY    51  49  92 E6        29.52R
MACKINAC ISLAN CLOUDY    46  46 100 E14       29.50F
NEWBERRY       FOG       52  51  97 SE6       29.48F VSB 1
S. S. MARIE    CLOUDY    53  49  86 E3        29.52S
MUNISING         N/A     37  36  96 N13       29.49R WCI  29
$$
MIZ004>006-011>014-085-270500-
CENTRAL UPPER MICHIGAN

CITY           SKY/WX    TMP DP  RH WIND       PRES   REMARKS
MANISTIQUE     FOG       45  44  97 SE6       29.45F VSB 1/4
ESCANABA       CLOUDY    48  48 100 NW6       29.43S FOG
MENOMINEE      CLOUDY    58  54  86 CALM      29.43R
SAWYER-GWINN   RAIN      38  37  99 N5        29.47S WCI  34
$$
MIZ001>003-009>011-084-270500-
WESTERN UPPER MICHIGAN

CITY           SKY/WX    TMP DP  RH WIND       PRES   REMARKS
IRON MOUNTAIN  CLOUDY    40  36  86 NW9       29.44F WCI  34
HOUGHTON       LGT SNOW  31  28  89 N12G22    29.51F FOG     WCI  22
IRONWOOD       LGT SNOW  28  26  92 N8        29.56F FOG     WCI  20
$$

ABBREVIATIONS USED IN REMARKS
   TC - TEMPERATURE IN CELSIUS
  WCI - WIND CHILL INDEX
   HX - HEAT INDEX
  VSB - VISIBILITY




USA.gov is the U.S. government's official web portal to all federal, state and local government web resources and services.